[[{"header":{"parameterUnit":"m.s-1","parameterCategory":1,"la1":30.2991,"la2":30.254,"lo1":-89.0895,"lo2":-89.0444,"dy":0.0017,"dx":0.0017,"nx":28,"ny":28,"refTime":"2024-06-11T03:00:00:Z","depth":0,"parameterNumber":2,"parameterNumberName":"U-component_of_WINDS"},"data":[0,0,0,0,0,0,0,0,0,0,0,0,0,0,0,0,0,0,0,0,0,0,0,0,0,0,0,0,0,0,0,0,0,0,0,0,0,0,0,0,0,0,0,0,0,0,0,0,0,0,0,0,0,0,0,0,0,0,-0.2195,-0.2195,0,-0.2222,-0.2222,-0.2222,-0.2214,-0.2213,-0.2212,-0.2212,-0.2241,-0.2242,-0.2244,0,0,0,0,0,0,0,0,0,0,0,0,0,-0.2137,-0.2138,-0.2195,-0.2195,-0.2196,-0.2222,-0.2222,-0.2222,-0.2214,-0.2213,-0.2212,-0.2212,-0.2241,-0.2242,-0.2244,0,0,0,0,0,0,0,0,0,0,0,0,0,-0.2163,-0.2138,-0.2195,-0.2195,-0.2195,-0.2222,-0.2222,-0.2222,-0.2214,-0.2213,-0.2212,-0.2211,-0.224,-0.2242,-0.2244,-0.2274,0,0,-0.225,-0.2251,0,0,0,0,0,0,0,0,-0.2161,-0.2165,-0.2194,-0.2195,-0.2195,-0.2213,-0.2212,-0.224,-0.2214,-0.2207,-0.2212,-0.2211,-0.2233,-0.2235,-0.2242,-0.2275,-0.2276,-0.225,-0.2251,-0.2252,-0.2253,0,0,0,0,0,0,0,-0.216,-0.2164,-0.2206,-0.2195,-0.2195,-0.2193,-0.2196,-0.2217,-0.2224,-0.2207,-0.2207,-0.221,-0.2233,-0.224,-0.2243,-0.2277,-0.225,-0.2252,-0.2253,-0.2254,-0.2333,-0.2334,0,0,0,0,0,0,-0.2157,-0.2162,-0.2205,-0.2206,-0.2176,-0.2195,-0.2198,-0.2208,-0.2224,-0.2226,-0.2211,-0.2209,-0.2237,-0.2241,-0.2244,-0.2278,-0.2252,-0.2254,-0.2255,-0.2332,-0.2333,-0.2334,0,0,0,0,0,0,-0.2156,-0.2161,-0.2204,-0.2184,-0.2189,-0.2197,-0.2209,-0.2209,-0.2217,-0.2226,-0.2228,-0.2217,-0.2237,-0.2241,-0.2266,-0.2279,-0.2255,-0.2257,-0.2331,-0.2332,-0.2333,-0.2348,0,0,0,0,0,0,-0.2155,-0.2161,-0.2173,-0.2185,-0.2191,-0.2225,-0.221,-0.2211,-0.222,-0.2219,-0.2233,-0.2234,-0.2236,-0.2263,-0.2268,-0.2282,-0.2258,-0.233,-0.2331,-0.2333,-0.2347,-0.235,-0.2353,0,0,0,0,0,-0.2153,-0.2177,-0.2173,-0.2178,-0.2205,-0.2226,-0.223,-0.2231,-0.2221,-0.2233,-0.2238,-0.2234,-0.2277,-0.2265,-0.2271,-0.2286,-0.2329,-0.2331,-0.2333,-0.2345,-0.2349,-0.2353,0,0,0,0,0,0,-0.2168,-0.2178,-0.2175,-0.2203,-0.2214,-0.2225,-0.2239,-0.2235,-0.225,-0.2248,-0.2249,-0.2252,-0.2277,-0.2284,-0.2271,-0.2314,-0.2301,-0.2304,-0.2309,-0.2313,-0.2316,-0.2314,-0.226,0,0,0,0,0,-0.2174,-0.219,-0.2198,-0.2223,-0.2228,-0.2233,-0.2242,-0.2242,-0.2253,-0.2258,-0.2265,-0.2276,-0.2292,-0.2303,-0.2318,-0.2347,-0.2349,-0.236,-0.2363,-0.2365,-0.2368,-0.2382,-0.2387,-0.2341,-0.2341,-0.234,0,0,-0.2188,-0.2196,-0.2206,-0.2226,-0.2234,-0.225,-0.2237,-0.2255,-0.2267,-0.2261,-0.2284,-0.2289,-0.2302,-0.2328,-0.2341,-0.2335,-0.2381,-0.2368,-0.237,-0.2371,-0.2385,-0.2389,-0.2393,-0.2342,-0.2342,-0.2341,0,0,-0.2222,-0.2229,-0.225,-0.2257,-0.2269,-0.2271,-0.2276,-0.2287,-0.229,-0.2313,-0.2308,-0.2322,-0.2349,-0.2358,-0.2366,-0.2399,-0.2396,-0.2404,-0.2421,-0.2435,-0.2438,-0.2442,-0.2453,-0.2457,-0.2407,-0.2407,-0.2407,0,-0.2238,-0.2262,-0.2261,-0.2279,-0.2287,-0.228,-0.23,-0.2308,-0.2324,-0.233,-0.2323,-0.2356,-0.2364,-0.2391,-0.2399,-0.2406,-0.2411,-0.2403,-0.2438,-0.2441,-0.2444,-0.2455,-0.2459,-0.2408,-0.2408,-0.2408,-0.2408,0,-0.2281,-0.2297,-0.2312,-0.2326,-0.2336,-0.2355,-0.2357,-0.2367,-0.2365,-0.2368,-0.239,-0.2399,-0.2415,-0.2421,-0.2421,-0.2448,-0.2444,-0.2437,-0.2425,-0.2449,-0.2459,-0.2464,-0.2409,-0.2409,-0.2409,-0.2409,0,0,-0.2327,-0.2338,-0.2343,-0.2349,-0.236,-0.2373,-0.239,-0.2405,-0.2413,-0.2424,-0.2439,-0.246,-0.2453,-0.2462,-0.2462,-0.2474,-0.2498,-0.2465,-0.2466,-0.2471,-0.2528,-0.2533,-0.2538,-0.2495,-0.2496,-0.2497,-0.2527,0,-0.2361,-0.2392,-0.239,-0.2419,-0.2434,-0.2426,-0.2441,-0.2449,-0.2452,-0.2464,-0.2467,-0.2482,-0.2472,-0.2477,-0.2489,-0.2493,-0.251,-0.2491,-0.2509,-0.251,-0.2506,-0.2544,-0.255,-0.2578,-0.2531,-0.2532,-0.2532,0,-0.2406,-0.2416,-0.2446,-0.2452,-0.2459,-0.2473,-0.2484,-0.2496,-0.2505,-0.2506,-0.2514,-0.2511,-0.2528,-0.2514,-0.2538,-0.2525,-0.2532,-0.2535,-0.2536,-0.2538,-0.2523,-0.2547,-0.2587,-0.2591,-0.2538,-0.2538,-0.2537,0,-0.2436,-0.2457,-0.2477,-0.2482,-0.2491,-0.25,-0.2504,-0.2512,-0.2519,-0.253,-0.2535,-0.2547,-0.2554,-0.2564,-0.2564,-0.2554,-0.2587,-0.2574,-0.2588,-0.2588,-0.2597,-0.2596,-0.2639,-0.2601,-0.2601,-0.2601,-0.26,0,-0.2475,-0.2493,-0.2491,-0.2503,-0.2523,-0.252,-0.254,-0.2543,-0.2549,-0.2562,-0.2556,-0.2568,-0.2567,-0.2579,-0.2579,-0.2598,-0.2601,-0.2602,-0.2602,-0.2603,-0.2602,-0.2608,-0.2606,-0.2602,-0.2601,-0.2601,-0.2601,0,-0.2512,-0.2511,-0.2533,-0.2537,-0.2539,-0.2553,-0.2558,-0.2569,-0.257,-0.2586,-0.2589,-0.2591,-0.2604,-0.2605,-0.2621,-0.2621,-0.2644,-0.2641,-0.2641,-0.264,-0.2654,-0.2653,-0.2702,-0.2708,-0.2666,-0.2667,-0.2667,0,-0.2537,-0.2551,-0.2556,-0.2564,-0.2568,-0.258,-0.2587,-0.2584,-0.2592,-0.2601,-0.2611,-0.2624,-0.2634,-0.2655,-0.2658,-0.267,-0.2668,-0.2684,-0.267,-0.2669,-0.2667,-0.2666,-0.2667,-0.2687,-0.2688,-0.2688,-0.2688,0,-0.2581,-0.2579,-0.259,-0.2599,-0.2608,-0.2615,-0.2623,-0.2629,-0.2627,-0.2636,-0.2648,-0.2656,-0.2671,-0.2683,-0.2694,-0.2698,-0.2693,-0.2692,-0.2696,-0.2698,-0.2696,-0.2696,-0.2648,-0.2692,-0.2691,-0.2691,-0.2691,-0.2691,-0.2613,-0.2624,-0.2629,-0.264,-0.2644,-0.265,-0.2661,-0.2662,-0.2672,-0.2683,-0.2681,-0.2695,-0.2701,-0.2714,-0.2719,-0.273,-0.2724,-0.273,-0.2732,-0.2733,-0.2734,-0.2694,-0.2732,-0.2732,-0.2732,-0.2732,-0.2732,0,-0.2656,-0.2658,-0.2668,-0.2677,-0.2686,-0.2678,-0.2685,-0.2693,-0.2705,-0.271,-0.2719,-0.2733,-0.2744,-0.2747,-0.2757,-0.2765,-0.2763,-0.2768,-0.2768,-0.2768,-0.2739,-0.2734,-0.277,-0.277,-0.277,-0.277,-0.277,-0.277,-0.268,-0.2698,-0.2696,-0.2715,-0.2717,-0.273,-0.2734,-0.2739,-0.2743,-0.2758,-0.2767,-0.2768,-0.2772,-0.2782,-0.2792,-0.2792,-0.2796,-0.2802,-0.2802,-0.2775,-0.2771,-0.2767,-0.2763,-0.2803,-0.2803,-0.283,-0.283,-0.2831]},{"header":{"parameterUnit":"m.s-1","parameterCategory":1,"la1":30.2991,"la2":30.254,"lo1":-89.0895,"lo2":-89.0444,"dy":0.0017,"dx":0.0017,"nx":28,"ny":28,"refTime":"2024-06-11T03:00:00:Z","depth":0,"parameterNumber":3,"parameterNumberName":"V-component_of_WINDS"},"data":[0,0,0,0,0,0,0,0,0,0,0,0,0,0,0,0,0,0,0,0,0,0,0,0,0,0,0,0,0,0,0,0,0,0,0,0,0,0,0,0,0,0,0,0,0,0,0,0,0,0,0,0,0,0,0,0,0,0,-1.314,-1.3142,0,-1.3298,-1.3299,-1.3301,-1.3388,-1.3388,-1.3388,-1.3388,-1.3547,-1.355,-1.3554,0,0,0,0,0,0,0,0,0,0,0,0,0,-1.2911,-1.2915,-1.314,-1.3142,-1.3144,-1.3297,-1.33,-1.3302,-1.3387,-1.3388,-1.3388,-1.3388,-1.3545,-1.355,-1.3555,0,0,0,0,0,0,0,0,0,0,0,0,0,-1.3034,-1.2916,-1.314,-1.3206,-1.3213,-1.3297,-1.33,-1.3302,-1.3387,-1.3388,-1.3388,-1.3388,-1.3544,-1.355,-1.3555,-1.3585,0,0,-1.3574,-1.3576,0,0,0,0,0,0,0,0,-1.3027,-1.3042,-1.3194,-1.3201,-1.321,-1.3323,-1.3277,-1.3397,-1.3387,-1.3321,-1.3388,-1.3389,-1.3472,-1.3484,-1.3512,-1.3593,-1.36,-1.3574,-1.3578,-1.3581,-1.3582,0,0,0,0,0,0,0,-1.3018,-1.3036,-1.3202,-1.3196,-1.3206,-1.3226,-1.3244,-1.33,-1.3392,-1.3327,-1.3334,-1.3351,-1.3476,-1.3506,-1.3517,-1.3602,-1.3574,-1.3579,-1.3583,-1.3586,-1.3714,-1.3714,0,0,0,0,0,0,-1.3,-1.3028,-1.3197,-1.3207,-1.3117,-1.323,-1.325,-1.3286,-1.3392,-1.3409,-1.3351,-1.3355,-1.3496,-1.351,-1.3523,-1.3565,-1.358,-1.3586,-1.359,-1.3714,-1.3714,-1.3714,0,0,0,0,0,0,-1.2994,-1.3014,-1.3191,-1.312,-1.3144,-1.3234,-1.3274,-1.3289,-1.332,-1.341,-1.3427,-1.3365,-1.3497,-1.3514,-1.3569,-1.3571,-1.3589,-1.3594,-1.3715,-1.3714,-1.3714,-1.3648,0,0,0,0,0,0,-1.2987,-1.3011,-1.3024,-1.3119,-1.3147,-1.3236,-1.3274,-1.3292,-1.333,-1.3337,-1.3428,-1.3443,-1.3498,-1.356,-1.3575,-1.358,-1.3599,-1.3715,-1.3715,-1.3714,-1.3651,-1.3646,-1.3642,0,0,0,0,0,-1.2979,-1.2999,-1.3025,-1.3045,-1.3165,-1.3236,-1.3252,-1.3316,-1.333,-1.3343,-1.3401,-1.344,-1.3568,-1.3565,-1.3583,-1.3589,-1.3715,-1.3715,-1.3714,-1.3653,-1.3647,-1.3642,0,0,0,0,0,0,-1.2901,-1.3013,-1.3042,-1.3094,-1.3155,-1.325,-1.3269,-1.3307,-1.3365,-1.3368,-1.3444,-1.3464,-1.3512,-1.3556,-1.355,-1.3623,-1.3646,-1.3649,-1.3593,-1.3588,-1.3583,-1.3572,-1.3604,0,0,0,0,0,-1.289,-1.2939,-1.3033,-1.307,-1.3099,-1.3178,-1.3211,-1.3255,-1.3321,-1.3347,-1.3409,-1.347,-1.3525,-1.3559,-1.3614,-1.3657,-1.3678,-1.3671,-1.3666,-1.3662,-1.3664,-1.369,-1.3687,-1.3713,-1.3713,-1.3713,0,0,-1.2868,-1.2935,-1.2961,-1.3056,-1.3108,-1.3156,-1.3199,-1.3248,-1.3284,-1.3354,-1.341,-1.3457,-1.3531,-1.358,-1.3605,-1.3619,-1.3661,-1.3661,-1.3657,-1.3662,-1.3689,-1.3686,-1.3684,-1.3712,-1.3713,-1.3713,0,0,-1.2851,-1.2907,-1.2943,-1.2995,-1.3074,-1.3127,-1.3135,-1.3225,-1.3259,-1.3317,-1.3371,-1.3414,-1.3506,-1.3556,-1.3593,-1.3595,-1.3633,-1.3611,-1.3587,-1.3611,-1.3609,-1.3608,-1.3608,-1.3607,-1.3612,-1.3612,-1.3612,0,-1.2813,-1.2888,-1.2957,-1.3003,-1.3043,-1.3109,-1.3146,-1.3192,-1.3284,-1.331,-1.3324,-1.3441,-1.3495,-1.3557,-1.3557,-1.3586,-1.3597,-1.3601,-1.3604,-1.3604,-1.3603,-1.3604,-1.3604,-1.3609,-1.3609,-1.361,-1.361,0,-1.2837,-1.2888,-1.2908,-1.2996,-1.3038,-1.3079,-1.3153,-1.3187,-1.3227,-1.3278,-1.3335,-1.3403,-1.3473,-1.3491,-1.353,-1.3558,-1.3564,-1.359,-1.3614,-1.3596,-1.3599,-1.36,-1.3604,-1.3606,-1.3607,-1.3607,0,0,-1.2776,-1.2902,-1.2908,-1.2949,-1.304,-1.3081,-1.3124,-1.3193,-1.3221,-1.3282,-1.332,-1.3396,-1.3421,-1.3463,-1.3509,-1.353,-1.3527,-1.3554,-1.3557,-1.3546,-1.3561,-1.354,-1.3539,-1.3552,-1.3553,-1.3553,-1.3554,0,-1.2772,-1.2855,-1.2918,-1.2976,-1.3023,-1.3087,-1.3125,-1.3184,-1.3233,-1.328,-1.3333,-1.3386,-1.3415,-1.3441,-1.3465,-1.3522,-1.353,-1.3523,-1.3587,-1.3589,-1.3567,-1.3541,-1.3519,-1.3517,-1.3556,-1.3556,-1.3556,0,-1.2779,-1.2839,-1.2902,-1.2988,-1.3011,-1.3043,-1.3111,-1.3156,-1.3224,-1.3258,-1.3305,-1.3352,-1.34,-1.342,-1.3486,-1.3479,-1.351,-1.3541,-1.3543,-1.3551,-1.3571,-1.3548,-1.3518,-1.3518,-1.3558,-1.3558,-1.3558,0,-1.2728,-1.2824,-1.2874,-1.2907,-1.3009,-1.303,-1.3074,-1.3143,-1.318,-1.3239,-1.3264,-1.3327,-1.3362,-1.3409,-1.3472,-1.3481,-1.3532,-1.3557,-1.3561,-1.3559,-1.3568,-1.3567,-1.3543,-1.3588,-1.3588,-1.3588,-1.3588,0,-1.2717,-1.2753,-1.2852,-1.2883,-1.2924,-1.2996,-1.3035,-1.3084,-1.3145,-1.3185,-1.3244,-1.328,-1.3361,-1.3407,-1.3457,-1.3504,-1.3519,-1.3547,-1.356,-1.3542,-1.3538,-1.3562,-1.3564,-1.3588,-1.3588,-1.3588,-1.3588,0,-1.2666,-1.2735,-1.2793,-1.2885,-1.2909,-1.2936,-1.3014,-1.3046,-1.3098,-1.3148,-1.3164,-1.3245,-1.3302,-1.337,-1.3449,-1.3482,-1.3525,-1.3544,-1.3502,-1.3509,-1.3509,-1.3507,-1.3499,-1.3501,-1.3545,-1.3544,-1.3544,0,-1.2655,-1.2684,-1.2779,-1.2811,-1.2853,-1.2903,-1.2942,-1.3013,-1.305,-1.3131,-1.3152,-1.3214,-1.3268,-1.3356,-1.3421,-1.3482,-1.3503,-1.3496,-1.3512,-1.3493,-1.3502,-1.3499,-1.3502,-1.3491,-1.349,-1.3489,-1.3489,0,-1.2627,-1.2659,-1.2713,-1.2778,-1.2822,-1.2877,-1.2934,-1.2956,-1.3039,-1.3077,-1.3137,-1.3178,-1.326,-1.332,-1.3389,-1.3433,-1.3474,-1.3483,-1.3487,-1.3469,-1.3443,-1.3456,-1.3489,-1.3483,-1.3483,-1.3484,-1.3484,-1.3484,-1.2596,-1.2624,-1.2696,-1.2753,-1.2803,-1.2855,-1.2889,-1.2946,-1.2997,-1.3069,-1.3108,-1.3166,-1.3234,-1.3331,-1.3373,-1.342,-1.3434,-1.344,-1.3441,-1.3441,-1.3436,-1.3436,-1.3432,-1.3433,-1.3433,-1.3433,-1.3433,0,-1.257,-1.2619,-1.2671,-1.2749,-1.2794,-1.283,-1.2895,-1.293,-1.2981,-1.3041,-1.3092,-1.316,-1.3219,-1.3289,-1.3352,-1.3376,-1.3396,-1.339,-1.3389,-1.3398,-1.342,-1.341,-1.3372,-1.3372,-1.3372,-1.3372,-1.3372,-1.3372,-1.2562,-1.2612,-1.2653,-1.2728,-1.2777,-1.2836,-1.2869,-1.2917,-1.2965,-1.3039,-1.3088,-1.3134,-1.3198,-1.3266,-1.3321,-1.334,-1.3361,-1.3348,-1.3373,-1.3391,-1.3397,-1.3402,-1.3393,-1.3352,-1.3352,-1.3347,-1.3347,-1.3347]}]]